EW9981 Weather Reports


time (UTC)temp
F
wind
direction
speed
knots
gust
knots
rain 1hr
in
rain 24hr
in
rain mn
in
humidity
%
barometer
mb
20260902034519 59 95 0.9 1.7 0.00 0.00 0.00 45 1010.0
20260902033035 61 95 0.0 2.6 0.00 0.00 0.00 43 1009.8
20260902031516 61 95 0.0 7.8 0.00 0.00 0.00 43 1009.7
20260902030020 61 95 2.6 6.1 0.00 0.00 0.00 42 1009.6
20260902024515 62 95 2.6 8.7 0.00 0.00 0.00 40 1009.5
20260902023013 63 95 2.6 7.0 0.00 0.00 0.00 40 1009.4
20260902021541 64 95 2.6 6.1 0.00 0.00 0.00 40 1009.3
20260902020042 65 95 3.5 7.0 0.00 0.00 0.00 39 1009.3
20260902014539 66 95 2.6 7.0 0.00 0.00 0.00 38 1009.4
20260902013038 67 95 1.7 8.7 0.00 0.00 0.00 37 1009.3
20260902011537 69 95 4.3 7.8 0.00 0.00 0.00 36 1009.4
20260902010039 70 95 2.6 10.4 0.00 0.00 0.00 35 1009.4
20260902004534 71 95 1.7 7.8 0.00 0.00 0.00 34 1009.4
20260902003034 71 95 3.5 7.8 0.00 0.00 0.00 33 1009.4
20260902001535 72 95 2.6 16.5 0.00 0.00 0.00 30 1009.6
20260902000032 73 95 2.6 7.0 0.00 0.00 0.00 32 1009.5
20260901234503 73 95 4.3 9.6 0.00 0.00 0.00 32 1009.8
20260901233003 73 95 0.0 9.6 0.00 0.00 0.00 31 1009.7
20260901231530 73 95 3.5 9.6 0.00 0.00 0.00 31 1009.8
20260901230033 73 95 6.1 15.6 0.00 0.00 0.00 33 1010.0
20260901224534 72 95 6.1 10.4 0.00 0.00 0.00 30 1010.1
20260901223025 75 95 0.9 8.7 0.00 0.00 0.00 28 1010.2
20260901221524 74 95 2.6 7.8 0.00 0.00 0.00 28 1010.2
20260901220022 74 95 0.0 7.0 0.00 0.00 0.00 26 1010.3
20260901214553 75 95 1.7 9.6 0.00 0.00 0.00 27 1010.4
20260901213049 73 95 3.5 10.4 0.00 0.00 0.00 27 1010.5
20260901211525 73 95 3.5 11.3 0.00 0.00 0.00 27 1010.5
20260901210018 73 95 4.3 9.6 0.00 0.00 0.00 29 1010.6
20260901204513 73 95 1.7 8.7 0.00 0.00 0.00 30 1010.6
20260901203013 73 95 1.7 9.6 0.00 0.00 0.00 31 1010.8
20260901201511 73 95 1.7 7.0 0.00 0.00 0.00 32 1010.8
20260901200012 73 95 2.6 6.1 0.00 0.00 0.00 32 1011.1
20260901194513 72 95 2.6 8.7 0.00 0.00 0.00 33 1011.1
20260901193007 72 95 2.6 9.6 0.00 0.00 0.00 32 1011.2
20260901191506 72 95 3.5 7.8 0.00 0.00 0.00 30 1011.2
20260901190015 71 95 4.3 7.8 0.00 0.00 0.00 32 1011.2
20260901184503 72 95 3.5 7.8 0.00 0.00 0.00 33 1011.2
20260901183002 72 95 2.6 9.6 0.00 0.00 0.00 32 1011.3
20260901181502 72 95 1.7 12.2 0.00 0.00 0.00 33 1011.4
20260901180100 72 95 2.6 9.6 0.00 0.00 0.00 35 1011.2
20260901174557 70 95 3.5 7.8 0.00 0.00 0.00 34 1011.2
20260901173101 71 95 3.5 7.0 0.00 0.00 0.00 32 1011.2
20260901171600 70 95 0.9 7.0 0.00 0.00 0.00 33 1011.1
20260901170053 68 95 4.3 8.7 0.00 0.00 0.00 37 1010.9
20260901164555 68 95 4.3 10.4 0.00 0.00 0.00 39 1010.7
20260901163046 69 95 3.5 7.0 0.00 0.00 0.00 42 1010.4
20260901161545 69 95 3.5 11.3 0.00 0.00 0.00 43 1010.3
20260901160040 68 95 2.6 9.6 0.00 0.00 0.00 40 1010.3
20260901154539 68 95 0.9 5.2 0.00 0.00 0.00 37 1010.2
20260901153034 67 95 0.0 2.6 0.00 0.00 0.00 43 1010.1
20260901151539 66 95 0.0 1.7 0.00 0.00 0.00 51 1010.0
20260901150029 60 95 0.9 3.5 0.00 0.00 0.00 55 1010.0
20260901144522 55 95 1.7 2.6 0.00 0.00 0.00 65 1010.1
20260901143105 53 95 0.9 2.6 0.00 0.00 0.00 68 1010.1
20260901141547 53 95 0.9 3.5 0.00 0.00 0.00 66 1010.0
20260901140015 53 95 0.0 1.7 0.00 0.00 0.00 65 1009.8
20260901134514 52 95 0.0 2.6 0.00 0.00 0.00 63 1009.7
20260901133011 52 95 0.9 3.5 0.00 0.00 0.00 63 1009.4
20260901131509 51 95 1.7 2.6 0.00 0.00 0.00 63 1009.4
20260901130006 51 95 0.9 2.6 0.00 0.00 0.00 60 1009.3
20260901124507 50 95 0.0 1.7 0.00 0.00 0.00 54 1009.3
20260901123004 50 95 0.0 1.7 0.00 0.00 0.00 52 1009.2
20260901121501 50 95 0.0 0.9 0.00 0.00 0.00 54 1009.2
20260901120101 50 95 0.0 0.0 0.00 0.00 0.00 57 1009.2
20260901114601 51 95 0.0 0.0 0.00 0.00 0.00 57 1009.3
20260901113104 51 95 0.0 1.7 0.00 0.00 0.00 58 1009.3
20260901111555 51 95 0.0 1.7 0.00 0.00 0.00 59 1009.5
20260901110101 51 95 0.0 0.0 0.00 0.00 0.00 59 1009.5
20260901104600 52 95 0.0 0.0 0.00 0.00 0.00 56 1009.5
20260901103049 52 95 0.0 1.7 0.00 0.00 0.00 58 1009.5
20260901101548 52 95 0.0 0.9 0.00 0.00 0.00 60 1009.4
20260901094546 53 95 0.0 1.7 0.00 0.00 0.00 59 1009.4
20260901093012 53 95 0.9 2.6 0.00 0.00 0.00 58 1009.4
20260901091511 53 95 0.9 2.6 0.00 0.00 0.00 58 1009.2
20260901090100 54 95 0.0 1.7 0.00 0.00 0.00 58 1009.2
20260901090009 54 95 0.0 1.7 0.00 0.00 0.00 58 1009.2
20260901084603 54 95 0.0 1.7 0.00 0.00 0.00 57 1009.2
20260901083101 54 95 0.0 0.9 0.00 0.00 0.00 57 1009.3
20260901081554 55 95 0.0 0.9 0.00 0.00 0.00 58 1009.2
20260901080059 55 95 0.9 1.7 0.00 0.00 0.00 58 1009.4
20260901074554 55 95 0.0 0.0 0.00 0.00 0.00 58 1009.3
20260901073054 55 95 0.0 0.9 0.00 0.00 0.00 58 1009.3
20260901071554 56 95 0.0 1.7 0.00 0.00 0.00 56 1009.4
20260901070058 55 95 0.0 0.9 0.00 0.00 0.00 56 1009.4
20260901064554 56 95 0.9 2.6 0.00 0.00 0.00 55 1009.3
20260901063054 56 95 0.0 1.7 0.00 0.00 0.00 54 1009.3
20260901061553 56 95 0.0 1.7 0.00 0.00 0.00 53 1009.3
20260901060002 56 95 0.0 1.7 0.00 0.00 0.00 52 1009.3
20260901054607 57 95 0.0 0.9 0.00 0.00 0.00 53 1009.5
20260901053115 57 95 0.0 0.9 0.00 0.00 0.00 52 1009.4
20260901051603 57 95 0.0 1.7 0.00 0.00 0.00 53 1009.3
20260901050057 58 95 0.0 0.9 0.00 0.00 0.00 53 1009.3
20260901044617 58 95 0.0 0.9 0.00 0.00 0.00 54 1009.3
20260901043054 59 95 0.0 1.7 0.00 0.00 0.00 54 1009.3
20260901041554 59 95 0.0 0.0 0.00 0.00 0.00 54 1009.2
20260901040048 60 95 0.0 0.9 0.00 0.00 0.00 54 1009.0
20260901034547 60 95 0.0 0.0 0.00 0.00 0.00 53 1008.8